STARLINK-36467, 67348

Orbit data source: Space-Track

STARLINK-36467, 67348 is a payload satellite owned by SpaceX/Seattle (US) in LEO that was launched on Fri, 09 Jan 2026 UTC via an FALCON 9 launch vehicle from the Air Force Eastern Test Range (AFETR). Payload-class satellites include a variety of spacecraft equipped with specific instruments for various scientific and technological missions. These include communications satellites like Starlink; space stations such as the ISS; scientific satellites like the Hubble; Earth observation satellites from companies like Planet Labs, Umbra, and HawkEye 360; GPS; miniature CubeSats for education and research; and military/defense satellites.

Loading next visibility...
Identifier
67348, 2026-003Q
Orbit
LEO
Country
Flag of USUS
Related business
Manufacturer
SpaceX/Seattle
Mission
Operational Commercial Communications
Bus & Motor
STARLINK V2MO, Unknown motor
Mass
575 kg wet, ~530 kg dry
Launch date (UTC)
2026-01-09 (5 months ago)
Launch vehicle
FALCON 9
Launch site
Air Force Eastern Test Range (AFETR)
Object type
Payload
Rocket body
Debris
Shape & HBR
Box + 2 Pan, 17.7 m
Radar Cross Section
36.964 m², Large (>1 m²)

Expand to show TLE details & history
Last TLE update: 2 days ago

TLE from 2 days ago
0 STARLINK-36467
1 67348U 26003Q   26169.98414802  .00019170  00000-0  70412-3 0  9994
2 67348  43.0011  15.1775 0001573 273.1866  86.8806 15.27590144 24318
Epoch: 2026-06-18T23:37Z
TLE epoch observation values (Epoch: 2026-06-18T23:37:10.388Z)
Latitude
-0.00002°
Longitude
113.66456°
Altitude
482.736 km
Speed
7.626 km/s
True Right ascension
01h 00m 42s
True Declination
0° 00' 00"
Sunlit
Object was in daylight at epoch
Visualization orbit readout
Latitude
Unknown
Longitude
Unknown
Altitude
Unknown
Speed
Unknown
Apparent Right ascension
Unknown
Apparent Declination
Unknown
Sunlit
N/A
Visualization observer readout
Local Sidereal Time
07:18:44
Azimuth
Unknown
Elevation
Unknown
Doppler factor
Unknown
Orbital elements
Apogee altitude
486.043 km
Perigee altitude
483.884 km
Semi-major axis
6,863.101 km
Eccentricity
0.00016
Inclination
43.0011°
RAAN
15.1775°
Arg. of periapsis
273.1866°
True anomaly
86.8986°
Mean anomaly
86.8806°
Eccentric anomaly
86.8896°
Mean motion
3.81736 °/min
Orbital period
94.31 mins
BSTAR
0.00070412
Loading maneuver chart data...
Computing Atmospheric mass density...
Loading historical data...
Loading historical data...
Loading historical data...
Loading historical data...
Loading historical data...
Loading historical data...
Loading historical data...

Documentation

Showing up to 5 results
|